TJS-6

Last updated on Thu Nov 21 2024 00:02:44 GMT+0000 (Coordinated Universal Time)

1 47613U 21010A 24325.17594227 .00000045 00000+0 00000+0 0 9995 2 47613 0.0523 257.5228 0003980 350.3219 53.7409 1.00275200 14052
UTC large
Height (km)
Speed (km/s)
/
Latitude / Longitude
Inclination (degrees)
Orbital Period (minutes)
Azimuth
Elevation
Range (km)
Doppler Factor

Next 0 passes for location: London (51.5072 / 0.1276)

Sorry there are no passes over London.